STARLINK-37731, 69304

Orbit data source: Space-Track

STARLINK-37731, 69304 is a payload satellite owned by SpaceX/Seattle (US) in SSO that was launched on Sat, 30 May 2026 UTC via an FALCON 9 launch vehicle from the Air Force Western Test Range (AFWTR). Payload-class satellites include a variety of spacecraft equipped with specific instruments for various scientific and technological missions. These include communications satellites like Starlink; space stations such as the ISS; scientific satellites like the Hubble; Earth observation satellites from companies like Planet Labs, Umbra, and HawkEye 360; GPS; miniature CubeSats for education and research; and military/defense satellites.

Loading next visibility...
Identifier
69304, 2026-119J
Orbit
SSO
Country
Flag of USUS
Related business
Manufacturer
SpaceX/Seattle
Mission
Operational spacecraft
Bus & Motor
STARLINK V2MO, Unknown motor
Mass
575 kg wet, ~530 kg dry
Launch date (UTC)
2026-05-30 (2 months ago)
Launch vehicle
FALCON 9
Launch site
Air Force Western Test Range (AFWTR)
Object type
Payload
Rocket body
Debris
Shape & HBR
Unknown shape, 17.7 m
Radar Cross Section
Large (>1 m²)

Expand to show TLE details & history
Last TLE update: 16 hours ago

TLE from 16 hours ago
0 STARLINK-37731
1 69304U 26119J   26202.03825959  .00015150  00000-0  47063-3 0  9999
2 69304  97.2844 227.6378 0001275 103.2266 256.9119 15.33446746  9249
Epoch: 2026-07-21T00:55Z
TLE epoch observation values (Epoch: 2026-07-21T00:55:05.628Z)
Latitude
-0.00003°
Longitude
-84.94934°
Altitude
468.848 km
Speed
7.632 km/s
True Right ascension
15h 10m 33s
True Declination
0° 00' 00"
Sunlit
Object was in daylight at epoch
Visualization orbit readout
Latitude
Unknown
Longitude
Unknown
Altitude
Unknown
Speed
Unknown
Apparent Right ascension
Unknown
Apparent Declination
Unknown
Sunlit
N/A
Visualization observer readout
Local Sidereal Time
05:26:48
Azimuth
Unknown
Elevation
Unknown
Doppler factor
Unknown
Orbital elements
Apogee altitude
463.353 km
Perigee altitude
461.609 km
Semi-major axis
6,840.618 km
Eccentricity
0.00013
Inclination
97.2844°
RAAN
227.6378°
Arg. of periapsis
103.2266°
True anomaly
256.89767°
Mean anomaly
256.9119°
Eccentric anomaly
256.90478°
Mean motion
3.83619 °/min
Orbital period
93.84 mins
BSTAR
0.00047063
Loading maneuver chart data...
Computing Atmospheric mass density...
Loading historical data...
Loading historical data...
Loading historical data...
Loading historical data...
Loading historical data...
Loading historical data...
Loading historical data...

Documentation

Showing up to 5 results
|